QPF
0.09 0.16 0.11 0.05 0.03 0.01 0.00 0.00 0.00 0.00 0.00 0.00 0.00 0.00 0.00 0.00 0.00 0.00 0.00 0.00 0.00 0.00 0.00 0.00 0.00 0.00 0.00 0.00 0.00 0.00 0.00 0.00 0.00 0.00 0.00 0.00 0.00 0.00 0.00 0.00 0.00 0.00 0.00 0.00
0.11 0.11 0.07 0.04 0.03 0.01 0.00 0.00 0.00 0.00 0.00 0.00 0.00 0.00 0.00 0.00 0.00 0.00 0.00 0.00 0.00 0.00 0.00 0.00 0.00 0.00 0.00 0.00 0.00 0.00 0.00 0.00 0.00 0.00 0.00 0.00 0.00 0.00 0.00 0.00 0.00 0.00 0.00 0.00
0.09 0.08 0.08 0.06 0.04 0.02 0.00 0.00 0.00 0.00 0.00 0.00 0.00 0.00 0.00 0.00 0.00 0.00 0.00 0.00 0.00 0.00 0.00 0.00 0.00 0.00 0.00 0.00 0.00 0.00 0.00 0.00 0.00 0.00 0.00 0.00 0.00 0.00 0.00 0.00 0.00 0.00 0.00 0.00
0.10 0.12 0.11 0.08 0.03 0.01 0.01 0.00 0.00 0.00 0.00 0.00 0.00 0.00 0.00 0.00 0.00 0.00 0.00 0.00 0.00 0.00 0.00 0.00 0.00 0.00 0.00 0.00 0.00 0.00 0.00 0.00 0.00 0.00 0.00 0.00 0.00 0.00 0.00 0.00 0.00 0.00 0.00 0.00
0.16 0.17 0.12 0.08 0.02 0.00 0.00 0.00 0.00 0.00 0.00 0.00 0.00 0.00 0.00 0.00 0.00 0.00 0.00 0.00 0.00 0.00 0.00 0.00 0.00 0.00 0.00 0.00 0.00 0.00 0.00 0.00 0.00 0.00 0.00 0.00 0.00 0.00 0.00 0.00 0.00 0.00 0.00 0.00
0.13 0.16 0.12 0.06 0.02 0.01 0.00 0.01 0.01 0.00 0.00 0.00 0.00 0.00 0.00 0.00 0.00 0.00 0.00 0.00 0.00 0.00 0.00 0.00 0.00 0.00 0.00 0.00 0.00 0.00 0.00 0.00 0.00 0.00 0.00 0.00 0.00 0.00 0.00 0.00 0.00 0.00 0.00 0.00
0.23 0.21 0.12 0.07 0.05 0.03 0.01 0.02 0.04 0.03 0.00 0.00 0.00 0.00 0.00 0.00 0.00 0.00 0.00 0.00 0.00 0.00 0.00 0.00 0.00 0.00 0.00 0.00 0.00 0.00 0.00 0.00 0.00 0.00 0.00 0.00 0.00 0.00 0.00 0.00 0.00 0.00 0.00 0.00
0.23 0.22 0.10 0.06 0.04 0.04 0.02 0.01 0.03 0.02 0.00 0.00 0.00 0.00 0.00 0.00 0.00 0.00 0.00 0.00 0.00 0.00 0.00 0.00 0.00 0.00 0.00 0.00 0.00 0.00 0.00 0.00 0.00 0.00 0.00 0.00 0.00 0.00 0.00 0.00 0.00 0.00 0.00 0.00
0.11 0.14 0.05 0.03 0.02 0.02 0.02 0.01 0.00 0.00 0.00 0.00 0.00 0.00 0.00 0.00 0.00 0.00 0.00 0.00 0.00 0.00 0.00 0.00 0.00 0.00 0.00 0.00 0.00 0.00 0.00 0.00 0.00 0.00 0.00 0.00 0.00 0.00 0.00 0.00 0.00 0.00 0.00 0.00
0.06 0.07 0.03 0.02 0.02 0.02 0.02 0.01 0.01 0.00 0.00 0.00 0.00 0.00 0.00 0.00 0.00 0.00 0.00 0.00 0.00 0.00 0.00 0.00 0.00 0.00 0.00 0.00 0.00 0.00 0.00 0.00 0.00 0.00 0.00 0.00 0.00 0.00 0.00 0.00 0.00 0.00 0.00 0.00
0.02 0.03 0.02 0.02 0.02 0.01 0.01 0.01 0.01 0.00 0.00 0.00 0.00 0.00 0.00 0.00 0.00 0.00 0.00 0.00 0.00 0.00 0.00 0.00 0.00 0.00 0.00 0.00 0.00 0.00 0.00 0.00 0.00 0.00 0.00 0.00 0.00 0.00 0.00 0.00 0.00 0.00 0.00 0.00
0.00 0.01 0.01 0.01 0.00 0.00 0.00 0.00 0.00 0.00 0.00 0.00 0.00 0.00 0.00 0.00 0.00 0.00 0.00 0.00 0.00 0.00 0.00 0.00 0.00 0.00 0.00 0.00 0.00 0.00 0.00 0.00 0.00 0.00 0.00 0.00 0.00 0.00 0.00 0.00 0.00 0.00 0.00 0.00
0.00 0.00 0.00 0.01 0.00 0.00 0.00 0.00 0.00 0.00 0.00 0.00 0.00 0.00 0.00 0.00 0.00 0.00 0.00 0.00 0.00 0.00 0.00 0.00 0.00 0.00 0.00 0.00 0.00 0.00 0.00 0.00 0.00 0.00 0.00 0.00 0.00 0.00 0.00 0.00 0.00 0.00 0.00 0.00
0.00 0.00 0.00 0.00 0.00 0.00 0.00 0.00 0.00 0.00 0.00 0.00 0.00 0.00 0.00 0.00 0.00 0.00 0.00 0.00 0.00 0.00 0.00 0.00 0.00 0.00 0.00 0.00 0.00 0.00 0.00 0.00 0.00 0.00 0.00 0.00 0.00 0.00 0.00 0.00 0.00 0.00 0.00 0.00
0.00 0.00 0.00 0.00 0.00 0.00 0.00 0.00 0.00 0.00 0.00 0.00 0.00 0.00 0.00 0.00 0.00 0.00 0.00 0.00 0.00 0.00 0.00 0.00 0.00 0.00 0.00 0.00 0.00 0.00 0.00 0.00 0.00 0.00 0.00 0.00 0.00 0.00 0.00 0.00 0.00 0.00 0.00 0.00
0.00 0.00 0.00 0.00 0.00 0.00 0.00 0.00 0.00 0.00 0.00 0.00 0.00 0.00 0.00 0.00 0.00 0.00 0.00 0.00 0.00 0.00 0.00 0.00 0.00 0.00 0.00 0.00 0.00 0.00 0.00 0.00 0.00 0.00 0.00 0.00 0.00 0.00 0.00 0.00 0.00 0.00 0.00 0.00
0.00 0.00 0.00 0.00 0.00 0.00 0.00 0.00 0.00 0.00 0.00 0.00 0.00 0.00 0.00 0.00 0.00 0.00 0.00 0.00 0.00 0.00 0.00 0.00 0.00 0.00 0.00 0.00 0.00 0.00 0.00 0.00 0.00 0.00 0.00 0.00 0.00 0.00 0.00 0.00 0.00 0.00 0.00 0.00
0.01 0.02 0.01 0.00 0.00 0.00 0.00 0.00 0.00 0.00 0.00 0.00 0.00 0.00 0.00 0.00 0.00 0.00 0.00 0.00 0.00 0.00 0.00 0.00 0.00 0.00 0.00 0.00 0.00 0.00 0.00 0.00 0.00 0.00 0.00 0.00 0.00 0.00 0.00 0.00 0.00 0.00 0.00 0.00
0.01 0.04 0.04 0.01 0.00 0.00 0.00 0.00 0.00 0.00 0.00 0.00 0.00 0.00 0.00 0.00 0.00 0.00 0.00 0.00 0.00 0.00 0.00 0.00 0.00 0.00 0.00 0.00 0.00 0.00 0.00 0.00 0.00 0.00 0.00 0.00 0.00 0.00 0.00 0.00 0.00 0.00 0.00 0.00
0.01 0.04 0.06 0.02 0.00 0.00 0.00 0.00 0.00 0.00 0.00 0.00 0.00 0.00 0.00 0.00 0.00 0.00 0.00 0.00 0.00 0.00 0.00 0.00 0.00 0.00 0.00 0.00 0.00 0.00 0.00 0.00 0.00 0.00 0.00 0.00 0.00 0.00 0.00 0.00 0.00 0.00 0.00 0.00
0.01 0.01 0.02 0.01 0.00 0.00 0.00 0.00 0.00 0.00 0.00 0.00 0.00 0.00 0.00 0.00 0.00 0.00 0.00 0.00 0.00 0.00 0.00 0.00 0.00 0.00 0.00 0.00 0.00 0.00 0.00 0.00 0.00 0.00 0.00 0.00 0.00 0.00 0.00 0.00 0.00 0.00 0.00 0.00
0.00 0.00 0.00 0.00 0.00 0.00 0.00 0.00 0.00 0.00 0.00 0.00 0.00 0.00 0.00 0.00 0.00 0.00 0.00 0.00 0.00 0.00 0.00 0.00 0.00 0.00 0.00 0.00 0.00 0.00 0.00 0.00 0.00 0.00 0.00 0.00 0.00 0.00 0.00 0.00 0.00 0.00 0.00 0.00
0.00 0.00 0.00 0.00 0.00 0.00 0.00 0.00 0.00 0.00 0.00 0.00 0.00 0.00 0.00 0.00 0.00 0.00 0.00 0.00 0.00 0.00 0.00 0.00 0.00 0.00 0.00 0.00 0.00 0.00 0.00 0.00 0.00 0.00 0.00 0.00 0.00 0.00 0.00 0.00 0.00 0.00 0.00 0.00
0.00 0.00 0.00 0.00 0.00 0.00 0.00 0.00 0.00 0.00 0.00 0.00 0.00 0.00 0.00 0.00 0.00 0.00 0.00 0.00 0.00 0.00 0.00 0.00 0.00 0.00 0.00 0.00 0.00 0.00 0.00 0.00 0.00 0.00 0.00 0.00 0.00 0.00 0.00 0.00 0.00 0.00 0.00 0.00
0.00 0.00 0.00 0.00 0.00 0.00 0.00 0.00 0.00 0.00 0.00 0.00 0.00 0.00 0.00 0.00 0.00 0.00 0.00 0.00 0.00 0.00 0.00 0.00 0.00 0.00 0.00 0.00 0.00 0.00 0.00 0.00 0.00 0.00 0.00 0.00 0.00 0.00 0.00 0.00 0.00 0.00 0.00 0.00
0.00 0.00 0.00 0.00 0.00 0.00 0.00 0.00 0.00 0.00 0.00 0.00 0.00 0.00 0.00 0.00 0.00 0.00 0.00 0.00 0.00 0.00 0.00 0.00 0.00 0.00 0.00 0.00 0.00 0.00 0.00 0.00 0.00 0.00 0.00 0.00 0.00 0.00 0.00 0.00 0.00 0.00 0.00 0.00
MSLP
1014.26 1013.96 1013.61 1013.28 1013.03 1012.92 1012.95 1013.08 1013.25 1013.38 1013.40 1013.26 1012.93 1012.47 1011.93 1011.41 1011.01 1010.79 1010.79 1011.00 1011.36 1011.78 1012.16 1012.43 1012.53 1012.45 1012.22 1011.89 1011.56 1011.29 1011.14 1011.15 1011.32 1011.60 1011.96 1012.34 1012.69 1012.97 1013.17 1013.29 1013.34 1013.33 1013.29 1013.22
1013.58 1013.22 1012.84 1012.53 1012.34 1012.30 1012.43 1012.66 1012.93 1013.14 1013.20 1013.08 1012.75 1012.26 1011.70 1011.17 1010.77 1010.58 1010.64 1010.92 1011.37 1011.89 1012.38 1012.73 1012.91 1012.88 1012.70 1012.41 1012.10 1011.85 1011.74 1011.77 1011.96 1012.27 1012.64 1013.02 1013.36 1013.63 1013.80 1013.90 1013.92 1013.90 1013.86 1013.79
1012.90 1012.51 1012.13 1011.85 1011.72 1011.77 1011.99 1012.33 1012.68 1012.94 1013.04 1012.91 1012.57 1012.06 1011.46 1010.91 1010.51 1010.34 1010.43 1010.77 1011.29 1011.89 1012.47 1012.91 1013.16 1013.20 1013.08 1012.85 1012.60 1012.40 1012.33 1012.41 1012.63 1012.96 1013.34 1013.72 1014.04 1014.28 1014.43 1014.49 1014.50 1014.47 1014.42 1014.36
1012.29 1011.89 1011.53 1011.30 1011.24 1011.38 1011.69 1012.11 1012.51 1012.81 1012.92 1012.78 1012.41 1011.86 1011.23 1010.65 1010.23 1010.07 1010.19 1010.57 1011.14 1011.81 1012.45 1012.97 1013.30 1013.43 1013.39 1013.24 1013.06 1012.93 1012.92 1013.05 1013.30 1013.65 1014.03 1014.39 1014.69 1014.90 1015.01 1015.04 1015.02 1014.97 1014.92 1014.87
1011.76 1011.38 1011.07 1010.90 1010.92 1011.15 1011.53 1012.00 1012.45 1012.76 1012.85 1012.68 1012.27 1011.68 1011.01 1010.40 1009.97 1009.80 1009.93 1010.34 1010.96 1011.68 1012.39 1012.98 1013.39 1013.61 1013.67 1013.61 1013.52 1013.47 1013.52 1013.69 1013.97 1014.32 1014.68 1015.02 1015.28 1015.44 1015.51 1015.51 1015.46 1015.40 1015.34 1015.29
1011.29 1010.96 1010.72 1010.62 1010.73 1011.02 1011.47 1011.98 1012.43 1012.74 1012.80 1012.60 1012.14 1011.50 1010.80 1010.17 1009.72 1009.55 1009.69 1010.12 1010.77 1011.54 1012.31 1012.98 1013.49 1013.81 1013.96 1014.01 1014.01 1014.03 1014.14 1014.34 1014.62 1014.96 1015.29 1015.59 1015.80 1015.92 1015.94 1015.91 1015.83 1015.75 1015.68 1015.62
1010.83 1010.58 1010.41 1010.40 1010.58 1010.94 1011.43 1011.96 1012.41 1012.69 1012.72 1012.48 1011.98 1011.32 1010.59 1009.95 1009.50 1009.33 1009.49 1009.94 1010.61 1011.43 1012.25 1013.00 1013.60 1014.03 1014.29 1014.44 1014.53 1014.63 1014.78 1014.99 1015.27 1015.57 1015.86 1016.10 1016.26 1016.33 1016.32 1016.25 1016.16 1016.06 1015.97 1015.90
1010.35 1010.17 1010.09 1010.16 1010.41 1010.82 1011.34 1011.87 1012.31 1012.56 1012.56 1012.28 1011.77 1011.09 1010.36 1009.72 1009.29 1009.14 1009.31 1009.78 1010.49 1011.34 1012.22 1013.05 1013.74 1014.27 1014.64 1014.89 1015.07 1015.23 1015.41 1015.63 1015.88 1016.14 1016.38 1016.57 1016.67 1016.70 1016.66 1016.57 1016.46 1016.35 1016.24 1016.15
1009.79 1009.68 1009.68 1009.83 1010.14 1010.59 1011.12 1011.64 1012.06 1012.28 1012.25 1011.96 1011.44 1010.78 1010.08 1009.47 1009.07 1008.95 1009.14 1009.63 1010.37 1011.25 1012.19 1013.08 1013.86 1014.48 1014.96 1015.31 1015.57 1015.79 1015.99 1016.21 1016.44 1016.66 1016.85 1016.98 1017.05 1017.05 1016.98 1016.88 1016.76 1016.64 1016.52 1016.40
1009.14 1009.11 1009.19 1009.40 1009.75 1010.22 1010.74 1011.24 1011.62 1011.81 1011.77 1011.48 1010.99 1010.37 1009.73 1009.18 1008.83 1008.75 1008.97 1009.49 1010.24 1011.14 1012.12 1013.06 1013.91 1014.62 1015.19 1015.63 1015.97 1016.24 1016.48 1016.70 1016.91 1017.10 1017.25 1017.35 1017.39 1017.37 1017.30 1017.20 1017.07 1016.95 1016.81 1016.66
1008.43 1008.48 1008.63 1008.89 1009.26 1009.72 1010.21 1010.67 1011.00 1011.16 1011.11 1010.85 1010.41 1009.86 1009.30 1008.84 1008.56 1008.53 1008.79 1009.32 1010.07 1010.99 1011.97 1012.94 1013.84 1014.62 1015.27 1015.79 1016.21 1016.54 1016.82 1017.06 1017.26 1017.44 1017.57 1017.66 1017.69 1017.67 1017.60 1017.50 1017.38 1017.25 1017.09 1016.91
1007.74 1007.87 1008.07 1008.36 1008.73 1009.15 1009.59 1009.98 1010.26 1010.38 1010.32 1010.09 1009.72 1009.26 1008.81 1008.45 1008.27 1008.30 1008.60 1009.14 1009.89 1010.78 1011.76 1012.74 1013.66 1014.49 1015.20 1015.79 1016.28 1016.68 1017.01 1017.28 1017.51 1017.69 1017.83 1017.92 1017.95 1017.94 1017.88 1017.79 1017.67 1017.52 1017.34 1017.12
1007.13 1007.34 1007.58 1007.88 1008.23 1008.59 1008.94 1009.24 1009.44 1009.52 1009.45 1009.26 1008.97 1008.62 1008.30 1008.06 1007.98 1008.10 1008.43 1008.97 1009.70 1010.57 1011.51 1012.47 1013.40 1014.25 1015.01 1015.66 1016.22 1016.68 1017.07 1017.40 1017.66 1017.88 1018.03 1018.13 1018.18 1018.17 1018.12 1018.02 1017.88 1017.71 1017.49 1017.23
1006.69 1006.96 1007.24 1007.53 1007.82 1008.09 1008.34 1008.52 1008.63 1008.65 1008.57 1008.42 1008.21 1007.99 1007.80 1007.71 1007.74 1007.94 1008.32 1008.87 1009.58 1010.40 1011.29 1012.21 1013.12 1013.97 1014.76 1015.46 1016.08 1016.62 1017.07 1017.46 1017.77 1018.02 1018.20 1018.32 1018.37 1018.36 1018.30 1018.18 1018.01 1017.79 1017.52 1017.21
1006.45 1006.78 1007.07 1007.33 1007.54 1007.70 1007.81 1007.87 1007.87 1007.82 1007.73 1007.62 1007.50 1007.41 1007.38 1007.43 1007.60 1007.89 1008.32 1008.88 1009.56 1010.33 1011.17 1012.04 1012.90 1013.75 1014.54 1015.28 1015.95 1016.55 1017.07 1017.51 1017.87 1018.15 1018.35 1018.48 1018.53 1018.50 1018.40 1018.24 1018.02 1017.74 1017.41 1017.04
1006.40 1006.76 1007.05 1007.25 1007.37 1007.41 1007.38 1007.31 1007.20 1007.08 1006.98 1006.91 1006.89 1006.94 1007.06 1007.27 1007.57 1007.96 1008.46 1009.04 1009.70 1010.42 1011.20 1012.01 1012.83 1013.64 1014.44 1015.19 1015.90 1016.54 1017.10 1017.59 1017.99 1018.29 1018.50 1018.62 1018.64 1018.57 1018.42 1018.20 1017.91 1017.57 1017.17 1016.73
1006.47 1006.85 1007.12 1007.26 1007.28 1007.20 1007.03 1006.83 1006.62 1006.45 1006.35 1006.33 1006.41 1006.59 1006.87 1007.23 1007.67 1008.18 1008.74 1009.34 1009.99 1010.68 1011.40 1012.15 1012.92 1013.70 1014.48 1015.24 1015.96 1016.62 1017.22 1017.72 1018.13 1018.44 1018.64 1018.72 1018.70 1018.58 1018.36 1018.07 1017.71 1017.29 1016.82 1016.32
1006.57 1006.95 1007.19 1007.27 1007.20 1007.00 1006.73 1006.43 1006.15 1005.95 1005.86 1005.90 1006.08 1006.40 1006.82 1007.34 1007.91 1008.52 1009.14 1009.78 1010.43 1011.09 1011.76 1012.46 1013.18 1013.92 1014.67 1015.42 1016.13 1016.80 1017.40 1017.90 1018.30 1018.58 1018.74 1018.78 1018.70 1018.51 1018.23 1017.86 1017.43 1016.94 1016.42 1015.87
1006.62 1006.98 1007.17 1007.20 1007.06 1006.79 1006.44 1006.09 1005.78 1005.58 1005.53 1005.64 1005.93 1006.36 1006.92 1007.56 1008.25 1008.94 1009.63 1010.30 1010.95 1011.59 1012.23 1012.88 1013.56 1014.26 1014.98 1015.69 1016.39 1017.04 1017.61 1018.09 1018.45 1018.69 1018.80 1018.78 1018.63 1018.38 1018.03 1017.60 1017.11 1016.57 1016.01 1015.43
1006.52 1006.85 1007.01 1007.00 1006.83 1006.53 1006.17 1005.81 1005.52 1005.36 1005.37 1005.56 1005.94 1006.48 1007.15 1007.88 1008.65 1009.42 1010.15 1010.83 1011.48 1012.11 1012.72 1013.34 1013.98 1014.65 1015.33 1016.01 1016.68 1017.29 1017.82 1018.25 1018.57 1018.75 1018.79 1018.71 1018.50 1018.19 1017.78 1017.31 1016.78 1016.22 1015.64 1015.05
1006.25 1006.55 1006.70 1006.68 1006.52 1006.24 1005.92 1005.62 1005.39 1005.31 1005.40 1005.68 1006.14 1006.76 1007.49 1008.29 1009.10 1009.90 1010.64 1011.34 1011.98 1012.59 1013.18 1013.77 1014.39 1015.02 1015.67 1016.32 1016.94 1017.51 1017.99 1018.37 1018.61 1018.73 1018.71 1018.57 1018.31 1017.95 1017.52 1017.02 1016.48 1015.91 1015.33 1014.74
1005.83 1006.11 1006.26 1006.27 1006.16 1005.97 1005.74 1005.54 1005.42 1005.45 1005.63 1005.99 1006.52 1007.19 1007.95 1008.76 1009.58 1010.36 1011.10 1011.77 1012.40 1012.99 1013.56 1014.14 1014.74 1015.35 1015.97 1016.59 1017.16 1017.68 1018.11 1018.42 1018.60 1018.65 1018.58 1018.38 1018.08 1017.70 1017.24 1016.74 1016.21 1015.65 1015.08 1014.51
1005.30 1005.58 1005.76 1005.84 1005.82 1005.75 1005.67 1005.61 1005.64 1005.78 1006.07 1006.50 1007.07 1007.75 1008.50 1009.28 1010.06 1010.80 1011.49 1012.14 1012.73 1013.30 1013.86 1014.43 1015.02 1015.61 1016.21 1016.80 1017.33 1017.80 1018.17 1018.42 1018.54 1018.53 1018.40 1018.16 1017.83 1017.43 1016.98 1016.49 1015.97 1015.43 1014.88 1014.32
1004.76 1005.05 1005.28 1005.45 1005.58 1005.66 1005.74 1005.86 1006.04 1006.31 1006.69 1007.18 1007.76 1008.42 1009.13 1009.85 1010.55 1011.22 1011.85 1012.44 1013.01 1013.55 1014.10 1014.66 1015.24 1015.83 1016.41 1016.97 1017.46 1017.88 1018.19 1018.38 1018.45 1018.39 1018.21 1017.94 1017.59 1017.18 1016.73 1016.24 1015.74 1015.23 1014.70 1014.14
1004.29 1004.61 1004.91 1005.20 1005.47 1005.72 1005.99 1006.28 1006.61 1007.00 1007.46 1007.98 1008.56 1009.17 1009.80 1010.43 1011.05 1011.63 1012.19 1012.73 1013.25 1013.78 1014.31 1014.87 1015.45 1016.02 1016.58 1017.11 1017.57 1017.94 1018.20 1018.33 1018.34 1018.23 1018.02 1017.72 1017.35 1016.93 1016.48 1016.01 1015.52 1015.01 1014.49 1013.94
1003.96 1004.32 1004.70 1005.11 1005.53 1005.96 1006.39 1006.84 1007.31 1007.80 1008.32 1008.85 1009.39 1009.95 1010.49 1011.03 1011.54 1012.04 1012.53 1013.01 1013.50 1014.00 1014.53 1015.09 1015.65 1016.21 1016.75 1017.24 1017.66 1017.98 1018.18 1018.26 1018.22 1018.07 1017.82 1017.50 1017.11 1016.68 1016.23 1015.75 1015.27 1014.76 1014.24 1013.68
Thickness
5534 5540 5563 5588 5606 5627 5637 5644 5645 5650 5655 5652 5660 5671 5682 5694 5696 5700 5699 5698 5697 5694 5693 5695 5698 5701 5702 5703 5703 5702 5701 5701 5700 5696 5692 5685 5677 5672 5666 5660 5656 5653 5650 5648
5528 5542 5576 5596 5607 5623 5632 5634 5639 5644 5645 5650 5659 5670 5684 5692 5694 5698 5698 5696 5693 5689 5687 5688 5691 5692 5693 5693 5692 5691 5689 5688 5687 5683 5678 5672 5666 5659 5653 5647 5644 5641 5639 5636
5536 5562 5579 5592 5603 5614 5623 5631 5638 5638 5640 5646 5651 5670 5681 5684 5683 5685 5692 5692 5689 5686 5684 5682 5681 5681 5680 5679 5680 5680 5678 5676 5674 5670 5665 5659 5654 5649 5643 5638 5634 5630 5626 5623
5538 5562 5577 5590 5601 5615 5618 5634 5635 5630 5632 5640 5646 5653 5677 5684 5678 5678 5683 5685 5684 5680 5679 5675 5674 5671 5668 5667 5668 5669 5667 5665 5662 5660 5655 5650 5643 5636 5630 5626 5622 5619 5614 5611
5538 5554 5575 5590 5606 5617 5624 5627 5626 5624 5624 5630 5643 5646 5674 5677 5676 5677 5679 5681 5679 5676 5673 5667 5664 5661 5659 5658 5658 5657 5656 5652 5649 5646 5642 5639 5632 5624 5618 5615 5612 5609 5604 5600
5551 5562 5580 5598 5611 5615 5617 5616 5612 5615 5618 5622 5645 5647 5667 5680 5681 5679 5676 5676 5673 5670 5665 5660 5656 5653 5651 5649 5648 5646 5644 5640 5636 5632 5629 5624 5619 5613 5609 5605 5602 5598 5594 5589
5538 5557 5582 5600 5596 5600 5614 5605 5591 5596 5607 5629 5639 5644 5666 5680 5679 5680 5677 5675 5671 5665 5658 5653 5650 5648 5645 5642 5639 5636 5633 5629 5624 5620 5616 5611 5606 5602 5598 5595 5591 5587 5582 5577
5538 5561 5583 5599 5602 5600 5612 5612 5609 5613 5621 5636 5628 5640 5669 5672 5673 5675 5679 5676 5668 5660 5653 5649 5646 5643 5638 5634 5630 5626 5622 5617 5612 5608 5604 5600 5595 5591 5587 5582 5579 5574 5569 5564
5549 5565 5586 5600 5605 5610 5605 5607 5622 5625 5626 5633 5643 5652 5667 5663 5666 5666 5671 5670 5662 5655 5647 5643 5639 5635 5630 5625 5620 5616 5611 5605 5600 5596 5593 5589 5584 5580 5576 5571 5566 5561 5555 5549
5565 5565 5581 5590 5596 5598 5610 5611 5608 5616 5619 5627 5640 5647 5660 5666 5666 5662 5664 5664 5659 5650 5642 5637 5632 5626 5621 5615 5609 5605 5600 5594 5589 5586 5581 5576 5572 5568 5563 5558 5552 5547 5541 5535
5571 5575 5575 5587 5595 5600 5603 5605 5613 5619 5626 5632 5636 5649 5661 5662 5663 5663 5662 5663 5655 5643 5637 5631 5625 5618 5611 5605 5599 5594 5589 5583 5578 5574 5570 5566 5560 5554 5549 5544 5537 5531 5526 5520
5579 5590 5581 5588 5598 5614 5617 5619 5620 5616 5620 5633 5642 5649 5658 5656 5657 5658 5658 5656 5648 5639 5633 5625 5618 5609 5603 5597 5591 5585 5579 5574 5568 5564 5559 5553 5547 5541 5536 5530 5523 5517 5511 5505
5588 5595 5582 5578 5587 5596 5607 5618 5624 5628 5626 5627 5631 5646 5651 5651 5651 5651 5651 5647 5641 5633 5626 5619 5611 5604 5597 5589 5583 5576 5570 5564 5558 5553 5547 5541 5534 5528 5522 5516 5508 5501 5495 5489
5593 5600 5605 5604 5613 5616 5616 5619 5625 5624 5623 5628 5636 5648 5648 5646 5647 5647 5646 5644 5638 5630 5622 5615 5607 5599 5591 5583 5576 5569 5562 5555 5548 5542 5535 5528 5521 5514 5508 5500 5493 5486 5480 5473
5592 5599 5606 5613 5615 5619 5618 5617 5618 5622 5631 5632 5641 5642 5650 5650 5648 5647 5644 5640 5634 5625 5616 5609 5602 5594 5584 5576 5568 5560 5552 5545 5537 5530 5523 5515 5508 5502 5494 5486 5479 5472 5466 5458
5592 5596 5599 5598 5603 5611 5614 5620 5620 5624 5631 5636 5640 5645 5652 5644 5642 5639 5637 5632 5627 5620 5611 5604 5596 5588 5578 5569 5560 5550 5543 5534 5526 5520 5512 5503 5496 5489 5481 5473 5466 5460 5453 5445
5593 5594 5596 5595 5595 5600 5606 5622 5625 5628 5635 5637 5637 5650 5639 5632 5631 5632 5629 5625 5621 5615 5607 5599 5590 5580 5570 5561 5551 5542 5533 5524 5517 5508 5499 5492 5485 5477 5468 5460 5454 5448 5441 5432
5592 5590 5589 5586 5587 5587 5628 5626 5635 5634 5638 5640 5641 5639 5637 5634 5626 5621 5619 5616 5611 5606 5599 5592 5582 5570 5560 5550 5541 5531 5522 5514 5505 5496 5488 5480 5471 5463 5455 5449 5443 5436 5429 5421
5589 5583 5576 5576 5583 5604 5618 5616 5620 5624 5630 5632 5632 5628 5624 5617 5612 5605 5599 5599 5597 5594 5588 5581 5570 5559 5549 5540 5530 5521 5512 5503 5494 5485 5476 5466 5457 5449 5443 5437 5431 5423 5416 5409
5575 5576 5570 5571 5584 5598 5621 5617 5617 5621 5625 5624 5624 5620 5613 5611 5610 5603 5588 5583 5579 5574 5569 5563 5555 5547 5538 5529 5520 5511 5502 5492 5482 5471 5461 5451 5442 5436 5430 5423 5416 5409 5401 5394
5572 5573 5574 5581 5586 5610 5614 5611 5612 5614 5628 5617 5615 5611 5606 5606 5602 5588 5577 5570 5564 5560 5555 5549 5543 5536 5527 5517 5508 5500 5489 5478 5466 5455 5445 5437 5430 5423 5415 5409 5402 5394 5387 5380
5587 5584 5584 5583 5582 5598 5603 5604 5610 5615 5606 5608 5604 5599 5594 5587 5578 5573 5567 5559 5553 5547 5542 5538 5532 5524 5514 5505 5496 5486 5474 5462 5450 5440 5432 5425 5417 5409 5401 5393 5386 5378 5371 5365
5590 5596 5598 5597 5596 5592 5594 5601 5600 5601 5600 5596 5592 5587 5583 5577 5572 5565 5560 5553 5546 5540 5533 5527 5521 5511 5501 5490 5480 5470 5458 5445 5435 5427 5420 5413 5405 5396 5388 5379 5371 5363 5355 5347
5578 5579 5584 5585 5585 5583 5584 5587 5588 5591 5588 5585 5581 5577 5574 5570 5564 5558 5553 5546 5538 5530 5523 5516 5508 5498 5486 5474 5463 5452 5441 5430 5423 5416 5409 5401 5394 5385 5376 5366 5356 5346 5336 5327
5585 5580 5583 5582 5578 5578 5578 5579 5578 5575 5574 5570 5567 5564 5562 5559 5554 5550 5544 5537 5529 5520 5512 5503 5495 5484 5472 5459 5448 5437 5428 5419 5413 5406 5398 5390 5380 5372 5363 5353 5341 5329 5317 5305
5582 5586 5589 5594 5586 5584 5580 5572 5570 5568 5563 5560 5555 5548 5544 5544 5541 5535 5530 5524 5516 5507 5498 5488 5478 5468 5456 5444 5435 5426 5417 5409 5400 5393 5386 5376 5367 5357 5348 5339 5329 5317 5304 5294